User: anonymous   Login
Location: Unspecified
(0.0000°N, 0.0000°E)
Time: 21:35:59
(UTC+00:00)
Language:

CHUBUSAT 1 - Orbit

View from above orbital plane
View from above orbital plane
View from above satellite
View from above satellite

Ground track
Ground track

The orbit data is extracted from the following two-line orbital elements,

1 40300U 14070C   18049.51293956  .00000634  00000-0  31245-4 0  9993
2 40300  97.3744 129.7059 0019285 323.3646 132.0717 15.21386562182234
Epoch (UTC): 18 February 2018 12:18:37
Eccentricity: 0.0019285
inclination: 97.3744°
perigee height: 488 km
apogee height: 515 km
right ascension of ascending node: 129.7059°
argument of perigee: 323.3646°
revolutions per day: 15.21386562
mean anomaly at epoch: 132.0717°
orbit number at epoch: 18223

The dashed part of the orbit path shows where the satellite is in the earth's shadow,  

DLR